Voltar ao catálogo

STARLINK-32242

AtivoComunicaçõesVLEO
NORAD 60429·PAYLOAD·🇺🇸 United States

Lançado Aug 12, 2024 de Cape Canaveral Space Force Station

Loading…

Próximas Passagens (próximas 24 horas)

TLE

AtualizadoSource: CelesTrak SupGP

Época: Sep 14, 2026, 21:03 UTC

1 60429C 24144E   26257.87756944  .00063221  00000+0  18689-2 0  2572
2 60429  53.1588  56.0386 0000869  64.9823  78.4143 15.34342482    10

Acompanhe STARLINK-32242 em tempo real com AllMySat

Download on the App Store